Weather in Bogdanovka

Russia / Omsk Oblast     55°02′15″N   74°08′40″E
temp.,
°C
wind,
m/s
gust,
m/s
humid.,
%
clouds,
%
prec.,
mm/h
press.,
hPa
HPBL,
m
27 january, wed
wed2700:00−3wsw5119592 0.4 1025436
03:00−2wsw6129492 0.1 1023466
06:00−2wsw6129496 0.3 1023457
09:00−3wsw71194100 0.1 1023400
12:00−2w71292100 0.2 1024633
15:00−1wnw6109099 0.1 1024796
18:00−2w5109599 0.1 1026514
21:00−5w51093100 0.1 1028323
28 january, thu
thu2800:00−8w349796 0.1 102889
03:00−9wsw479699 0.0 1029137
06:00−11wsw499695 0.0 1029173
09:00−10wsw5109595 0.1 1029219
12:00−8wsw5119497 0.1 1029285
15:00−6wsw61193100 0.0 1027343
18:00−6wsw71591100 0.0 1027362
21:00−5wsw71587100 0.0 1026429
29 january, fri
fri2900:00−4wsw81786100 0.0 1024482
03:00−4wsw81686100 0.0 1024548
06:00−5w81685100 0.0 1024520
09:00−7w61388100 0.0 1025419
12:00−7w61190100 0.0 1026388
15:00−7w51091100 0.0 1027360
18:00−9wsw4993100 0.0 1028242
21:00−11w3694100 0.0 1028129
30 january, sat
sat3000:00−11wsw3493100 0.0 102983
03:00−13wsw3493100 0.0 102949
06:00−14wsw2392100 0.0 102920
09:00−14sw1290100 0.0 102920
12:00−11sse239084 0.0 102958
15:00−9sse35910 0.0 1028122
18:00−11se348829 0.0 102761
21:00−11se4789100 0.0 1026115
31 january, sun
sun3100:00−10se5987100 0.0 1025197
03:00−9se51087100 0.0 1024250
06:00−9sse4988100 0.0 1022219
09:00−10sse4690100 0.0 1022134
12:00−8s3591100 0.0 1021164
15:00−7sw239473 0.0 1021118
18:00−10wnw239483 0.0 102221
21:00−12nw2295100 0.0 102321